TimeCDT,TemperatureF,Dew PointF,Humidity,Sea Level PressureIn,VisibilityMPH,Wind Direction,Wind SpeedMPH,Gust SpeedMPH,PrecipitationIn,Events,Conditions,WindDirDegrees,DateUTC
12:54 AM,53.1,45.0,74,30.09,10.0,NE,5.8,-,N/A,,Clear,40,2013-05-05 05:54:00
1:54 AM,51.1,44.1,77,30.08,10.0,NE,6.9,-,N/A,,Clear,40,2013-05-05 06:54:00
2:54 AM,48.9,44.1,83,30.07,10.0,NE,6.9,-,N/A,,Clear,40,2013-05-05 07:54:00
3:54 AM,48.0,43.0,83,30.08,10.0,NE,8.1,-,N/A,,Clear,50,2013-05-05 08:54:00
4:54 AM,46.9,43.0,86,30.08,10.0,NE,5.8,-,N/A,,Clear,50,2013-05-05 09:54:00
5:54 AM,45.0,42.1,90,30.09,10.0,ENE,4.6,-,N/A,,Clear,60,2013-05-05 10:54:00
6:54 AM,46.9,43.0,86,30.11,10.0,NE,4.6,-,N/A,,Clear,40,2013-05-05 11:54:00
7:54 AM,48.0,43.0,83,30.12,10.0,NNE,4.6,-,N/A,,Clear,30,2013-05-05 12:54:00
8:54 AM,50.0,43.0,77,30.12,10.0,NE,6.9,-,N/A,,Clear,50,2013-05-05 13:54:00
9:54 AM,53.1,43.0,69,30.12,10.0,ENE,3.5,-,N/A,,Clear,60,2013-05-05 14:54:00
10:54 AM,57.0,45.0,64,30.12,10.0,East,5.8,-,N/A,,Clear,80,2013-05-05 15:54:00
11:54 AM,62.1,45.0,53,30.11,10.0,ENE,5.8,-,N/A,,Clear,70,2013-05-05 16:54:00
1:54 PM,66.9,43.0,42,30.08,10.0,Variable,4.6,-,N/A,,Clear,0,2013-05-05 18:54:00
2:54 PM,68.0,39.9,36,30.06,10.0,Variable,6.9,-,N/A,,Clear,0,2013-05-05 19:54:00
3:54 PM,71.1,37.9,30,30.05,10.0,ENE,6.9,-,N/A,,Clear,60,2013-05-05 20:54:00
4:54 PM,70.0,37.9,31,30.04,10.0,ENE,4.6,-,N/A,,Clear,60,2013-05-05 21:54:00
5:54 PM,71.1,35.1,27,30.04,10.0,Calm,Calm,-,N/A,,Clear,0,2013-05-05 22:54:00
7:54 PM,66.9,35.1,31,30.05,10.0,Calm,Calm,-,N/A,,Clear,0,2013-05-06 00:54:00
8:54 PM,62.1,41.0,46,30.06,10.0,SE,3.5,-,N/A,,Clear,140,2013-05-06 01:54:00
9:54 PM,59.0,42.1,53,30.07,10.0,Calm,Calm,-,N/A,,Clear,0,2013-05-06 02:54:00
10:54 PM,55.9,43.0,62,30.07,10.0,Calm,Calm,-,N/A,,Clear,0,2013-05-06 03:54:00
11:54 PM,52.0,43.0,71,30.07,10.0,Calm,Calm,-,N/A,,Clear,0,2013-05-06 04:54:00